Orbital Elements at Epoch 2459200.5 (2020-Dec-17.0) TDB
Reference: JPL 8 (heliocentric ecliptic J2000)
Element | Value | Uncertainty (1-sigma) | Units |
e | .6438219836817632 | 0.001144 | |
a | 107.8713376637091 | 0.27637 | au |
q | 38.4213990666546 | 0.029058 | au |
i | 26.79020048112385 | 3.664e-05 | deg |
node | 130.6810529022185 | 0.0036586 | deg |
peri | 29.81001928967831 | 0.062755 | deg |
M | 320.7799787066086 | 0.20908 | deg |
tp | 2503782.838766435234 (2143-Jan-09.33876644) | 67.377 | TDB |
period | 409220.6334069748 1120.39 | 1572.6 4.306 | d yr |
n | .000879721037042567 | 3.3808e-06 | deg/d |
Q | 177.3212762607636 | 0.4543 | au |
|
| | Orbit Determination Parameters
Additional Information
|